Torna al catalogo

STARLINK-4413

AttivoComunicazioniSSO
NORAD 53207·PAYLOAD·🇺🇸 United States

Lanciato Jul 22, 2022 da Vandenberg Space Force Base

Loading…

Prossimi Passaggi (prossime 24 ore)

TLE

AggiornatoSource: CelesTrak SupGP

Epoca: Sep 14, 2026, 20:53 UTC

1 53207C 22084U   26257.87062500 -.00034147  00000+0 -10605-2 0  2574
2 53207  97.2838 312.7590 0001497  83.9572  78.2753 15.33442724    16

Traccia STARLINK-4413 in tempo reale con AllMySat

Download on the App Store